When you browse on this site, cookies collect data to enhance your experience and personalize the content and advertising you see.
Visit our Privacy Policy to learn more. By continuing to use the site, you agree to this use of cookies and data.
  • In Schweiz
  • Länderverzeichnis
  • Für 7 Tage
  • Wassertemperatur
  • Satellitenkarten
  • Wetterkarte
  • Widgets
  • user-avatar
    Anmelden

    Stündliche Wetter Nam Dinh

    Heute, 17 Juli, Mittwoch

    Zeit Temperatur Niederschläge Wind Luftdruck Luftfeuchtigkeit
    00:00 +30°C° 0.1 mm 2 m/S 752 mmHg 84%
    01:00 +30°C° 0 mm 2 m/S 752 mmHg 86%
    02:00 +30°C° 0.1 mm 2 m/S 752 mmHg 86%
    03:00 +30°C° 0.1 mm 1 m/S 751 mmHg 86%
    04:00 +30°C° 0.1 mm 1 m/S 751 mmHg 87%
    05:00 +30°C° 0.3 mm 1 m/S 751 mmHg 84%
    06:00 +31°C° 0.3 mm 2 m/S 752 mmHg 81%
    07:00 +31°C° 0.3 mm 2 m/S 752 mmHg 78%
    08:00 +34°C° 0.2 mm 2 m/S 752 mmHg 72%
    09:00 +35°C° 0.2 mm 2 m/S 752 mmHg 66%
    10:00 +37°C° 0.2 mm 2 m/S 751 mmHg 59%
    11:00 +37°C° 0 mm 2 m/S 751 mmHg 58%
    12:00 +37°C° 0 mm 3 m/S 750 mmHg 57%
    13:00 +38°C° 0 mm 3 m/S 750 mmHg 56%
    14:00 +37°C° 0 mm 4 m/S 749 mmHg 58%
    15:00 +37°C° 0 mm 4 m/S 749 mmHg 60%
    16:00 +36°C° 0 mm 4 m/S 748 mmHg 62%
    17:00 +35°C° 0 mm 4 m/S 748 mmHg 68%
    18:00 +34°C° 0 mm 4 m/S 749 mmHg 74%
    19:00 +32°C° 0 mm 4 m/S 749 mmHg 80%
    20:00 +31°C° 0 mm 3 m/S 750 mmHg 82%
    21:00 +31°C° 0 mm 3 m/S 750 mmHg 83%
    22:00 +31°C° 0 mm 2 m/S 751 mmHg 85%
    23:00 +31°C° 0 mm 2 m/S 751 mmHg 86%

    Morgen, 18 Juli, Donnerstag

    Zeit Temperatur Niederschläge Wind Luftdruck Luftfeuchtigkeit
    00:00 +30°C° 0 mm 2 m/S 750 mmHg 87%
    01:00 +30°C° 0 mm 2 m/S 750 mmHg 87%
    02:00 +30°C° 0 mm 2 m/S 750 mmHg 88%
    03:00 +30°C° 0 mm 2 m/S 749 mmHg 88%
    04:00 +30°C° 0 mm 2 m/S 749 mmHg 88%
    05:00 +30°C° 0 mm 2 m/S 749 mmHg 86%
    06:00 +31°C° 0 mm 1 m/S 750 mmHg 83%
    07:00 +32°C° 0 mm 1 m/S 750 mmHg 81%
    08:00 +33°C° 0 mm 1 m/S 750 mmHg 74%
    09:00 +35°C° 0 mm 1 m/S 750 mmHg 67%
    10:00 +35°C° 0 mm 0 m/S 750 mmHg 60%
    11:00 +39°C° 0 mm 1 m/S 749 mmHg 56%
    12:00 +39°C° 0 mm 1 m/S 749 mmHg 53%
    13:00 +40°C° 0 mm 1 m/S 748 mmHg 50%
    14:00 +40°C° 0 mm 2 m/S 747 mmHg 52%
    15:00 +39°C° 0 mm 3 m/S 747 mmHg 55%
    16:00 +38°C° 0 mm 4 m/S 746 mmHg 57%
    17:00 +37°C° 0 mm 4 m/S 746 mmHg 64%
    18:00 +35°C° 0 mm 3 m/S 747 mmHg 70%
    19:00 +34°C° 0 mm 3 m/S 747 mmHg 76%
    20:00 +34°C° 0 mm 3 m/S 748 mmHg 77%
    21:00 +33°C° 0 mm 3 m/S 748 mmHg 78%
    22:00 +32°C° 0 mm 2 m/S 749 mmHg 79%
    23:00 +32°C° 0 mm 2 m/S 749 mmHg 79%

    übermorgen, 19 Juli, Freitag

    Zeit Temperatur Niederschläge Wind Luftdruck Luftfeuchtigkeit
    00:00 +32°C° 0 mm 2 m/S 749 mmHg 80%
    01:00 +31°C° 0 mm 2 m/S 748 mmHg 80%
    02:00 +31°C° 0 mm 1 m/S 748 mmHg 81%
    03:00 +31°C° 0 mm 1 m/S 748 mmHg 82%
    04:00 +31°C° 0 mm 1 m/S 747 mmHg 83%
    05:00 +31°C° 0 mm 1 m/S 748 mmHg 82%
    06:00 +32°C° 0 mm 1 m/S 748 mmHg 81%
    07:00 +32°C° 0 mm 1 m/S 749 mmHg 79%
    08:00 +34°C° 0 mm 1 m/S 749 mmHg 72%
    09:00 +36°C° 0 mm 2 m/S 749 mmHg 65%
    10:00 +38°C° 0 mm 2 m/S 749 mmHg 58%
    11:00 +39°C° 0 mm 2 m/S 748 mmHg 54%
    12:00 +40°C° 0 mm 2 m/S 748 mmHg 49%
    13:00 +42°C° 0 mm 1 m/S 748 mmHg 45%
    14:00 +41°C° 0 mm 2 m/S 747 mmHg 46%
    15:00 +42°C° 0 mm 3 m/S 747 mmHg 48%
    16:00 +41°C° 0 mm 4 m/S 746 mmHg 50%
    17:00 +38°C° 0 mm 4 m/S 746 mmHg 57%
    18:00 +37°C° 0 mm 4 m/S 747 mmHg 64%
    19:00 +35°C° 0 mm 4 m/S 747 mmHg 71%
    20:00 +34°C° 0 mm 3 m/S 748 mmHg 72%
    21:00 +34°C° 0 mm 3 m/S 748 mmHg 73%
    22:00 +34°C° 0 mm 3 m/S 749 mmHg 74%
    23:00 +34°C° 0 mm 3 m/S 749 mmHg 75%

    20 Juli, Samstag

    Zeit Temperatur Niederschläge Wind Luftdruck Luftfeuchtigkeit
    00:00 +33°C° 0 mm 3 m/S 749 mmHg 77%
    01:00 +32°C° 0 mm 2 m/S 749 mmHg 78%
    02:00 +32°C° 0 mm 2 m/S 749 mmHg 79%
    03:00 +33°C° 0 mm 3 m/S 748 mmHg 80%
    04:00 +33°C° 0 mm 3 m/S 748 mmHg 81%
    05:00 +32°C° 0 mm 2 m/S 748 mmHg 80%
    06:00 +32°C° 0 mm 2 m/S 749 mmHg 78%
    07:00 +33°C° 0 mm 1 m/S 749 mmHg 77%
    08:00 +35°C° 0 mm 2 m/S 749 mmHg 70%
    09:00 +37°C° 0 mm 2 m/S 749 mmHg 64%
    10:00 +38°C° 0 mm 2 m/S 750 mmHg 58%
    11:00 +39°C° 0.1 mm 2 m/S 749 mmHg 53%
    12:00 +41°C° 0.1 mm 2 m/S 748 mmHg 48%
    13:00 +42°C° 0.1 mm 2 m/S 748 mmHg 43%
    14:00 +41°C° 0 mm 2 m/S 747 mmHg 46%
    15:00 +42°C° 0 mm 3 m/S 747 mmHg 48%
    16:00 +41°C° 0 mm 4 m/S 746 mmHg 51%
    17:00 +38°C° 0 mm 4 m/S 747 mmHg 58%
    18:00 +37°C° 0 mm 4 m/S 747 mmHg 65%
    19:00 +35°C° 0 mm 4 m/S 747 mmHg 72%
    20:00 +34°C° 0 mm 4 m/S 748 mmHg 73%
    21:00 +34°C° 0 mm 4 m/S 748 mmHg 73%
    22:00 +34°C° 0 mm 3 m/S 749 mmHg 74%
    23:00 +34°C° 0.1 mm 3 m/S 749 mmHg 76%

    21 Juli, Sonntag

    Zeit Temperatur Niederschläge Wind Luftdruck Luftfeuchtigkeit
    00:00 +33°C° 0.1 mm 3 m/S 748 mmHg 78%
    01:00 +32°C° 0.1 mm 2 m/S 748 mmHg 80%
    02:00 +32°C° 0 mm 2 m/S 748 mmHg 80%
    03:00 +32°C° 0 mm 2 m/S 748 mmHg 80%
    04:00 +32°C° 0 mm 2 m/S 748 mmHg 80%
    05:00 +32°C° 0 mm 2 m/S 748 mmHg 78%
    06:00 +32°C° 0 mm 2 m/S 748 mmHg 77%
    07:00 +32°C° 0 mm 2 m/S 749 mmHg 76%
    08:00 +35°C° 0 mm 2 m/S 749 mmHg 69%
    09:00 +37°C° 0 mm 2 m/S 749 mmHg 62%
    10:00 +38°C° 0 mm 2 m/S 749 mmHg 56%
    11:00 +40°C° 0 mm 2 m/S 748 mmHg 50%
    12:00 +41°C° 0 mm 2 m/S 748 mmHg 44%
    13:00 +43°C° 0 mm 2 m/S 747 mmHg 38%
    14:00 +43°C° 0 mm 3 m/S 747 mmHg 41%
    15:00 +42°C° 0 mm 3 m/S 746 mmHg 44%
    16:00 +42°C° 0 mm 4 m/S 746 mmHg 46%
    17:00 +40°C° 0 mm 4 m/S 746 mmHg 53%
    18:00 +37°C° 0 mm 4 m/S 746 mmHg 59%
    19:00 +35°C° 0 mm 4 m/S 747 mmHg 65%
    20:00 +35°C° 0 mm 4 m/S 747 mmHg 67%
    21:00 +35°C° 0 mm 4 m/S 748 mmHg 69%
    22:00 +34°C° 0 mm 4 m/S 749 mmHg 71%
    23:00 +34°C° 0 mm 4 m/S 748 mmHg 72%

    22 Juli, Montag

    Zeit Temperatur Niederschläge Wind Luftdruck Luftfeuchtigkeit
    00:00 +34°C° 0 mm 3 m/S 748 mmHg 72%
    01:00 +34°C° 0 mm 3 m/S 748 mmHg 73%
    02:00 +32°C° 0 mm 2 m/S 747 mmHg 74%
    03:00 +32°C° 0 mm 2 m/S 747 mmHg 74%
    04:00 +32°C° 0 mm 2 m/S 747 mmHg 75%
    05:00 +32°C° 0 mm 2 m/S 747 mmHg 74%
    06:00 +32°C° 0 mm 2 m/S 747 mmHg 74%
    07:00 +32°C° 0 mm 2 m/S 748 mmHg 74%
    08:00 +35°C° 0 mm 2 m/S 748 mmHg 66%
    09:00 +37°C° 0 mm 2 m/S 748 mmHg 59%
    10:00 +37°C° 0 mm 1 m/S 748 mmHg 51%
    11:00 +39°C° 0 mm 2 m/S 747 mmHg 47%
    12:00 +41°C° 0 mm 2 m/S 747 mmHg 42%
    13:00 +42°C° 0 mm 2 m/S 746 mmHg 37%
    14:00 +43°C° 0 mm 3 m/S 746 mmHg 38%
    15:00 +43°C° 0 mm 4 m/S 745 mmHg 40%
    16:00 +42°C° 0 mm 4 m/S 744 mmHg 41%
    17:00 +40°C° 0 mm 5 m/S 745 mmHg 49%
    18:00 +37°C° 0 mm 5 m/S 745 mmHg 56%
    19:00 +35°C° 0 mm 5 m/S 746 mmHg 64%
    20:00 +35°C° 0 mm 4 m/S 746 mmHg 66%
    21:00 +35°C° 0 mm 3 m/S 747 mmHg 68%
    22:00 +33°C° 0 mm 1 m/S 748 mmHg 70%
    23:00 +34°C° 0 mm 2 m/S 747 mmHg 72%
    Mehr zeigen